Terug naar catalogus

GEESAT 5-02

ActiefCommunicatieLEO
NORAD 65551·PAYLOAD·🇨🇳 China

Gelanceerd Sep 8, 2025 vanaf Yellow Sea Launch Area

Loading…

Volgende Passages (komende 24 uur)

TLE

VersSource: Space-Track

Epoch: Sep 14, 2026, 06:14 UTC

1 65551U 25201B   26257.26034665  .00001128  00000-0  15958-3 0  9999
2 65551  49.9880 346.1178 0008134 305.9958  54.0226 14.84404735 55028

Volg GEESAT 5-02 in realtime met AllMySat

Download on the App Store